Regional Weather Roundup
Issued by NWS Cleveland, OH

Home | Current Version | Previous Version | Text Only | Print | Product List | Glossary Off
Versions: 1 2 3 4 5 6 7 8 9 10 11 12 13 14 15 16 17 18 19 20 21 22 23 24 25 26 27 28 29 30 31 32 33 34 35 36 37 38 39 40 41 42 43 44 45 46 47 48 49 50

410
ASUS41 KCLE 282000
RWRCLE
OHIO REGIONAL WEATHER ROUNDUP
NATIONAL WEATHER SERVICE WILMINGTON, OH
400 PM EDT FRI APR 28 2017

NOTE: "FAIR" INDICATES FEW OR NO CLOUDS BELOW 12,000 FEET WITH NO
SIGNIFICANT WEATHER AND/OR OBSTRUCTIONS TO VISIBILITY.

OHZ001>008-015>018-024>027-034-035-043-044-282100-
   NORTHWEST OHIO

CITY           SKY/WX    TMP DP  RH WIND       PRES   REMARKS
DEFIANCE       CLOUDY    57  47  69 S10       30.01R
FINDLAY        LGT RAIN  59  47  64 SW9       30.02R
TOLEDO EXPRESS CLOUDY    59  43  55 S7        29.98F
TOLEDO EXEC    LGT RAIN  60  48  64 S12       30.00F
LIMA           LGT RAIN  57  49  74 SW7       30.04R
$$

OHZ009>014-019>023-028>033-038-089-282100-
   NORTHEAST OHIO

CITY           SKY/WX    TMP DP  RH WIND       PRES   REMARKS
CLE-HOPKINS    CLOUDY    63  44  50 S10       30.05R
CLE-LAKEFRONT  CLOUDY    64  45  49 S9        30.02S
CUY CO. ARPT   CLOUDY    64  46  52 S13       30.02F
LORAIN-ELYRIA  LGT RAIN  61  43  51 S10       30.03R
ASHTABULA      FAIR      64  44  48 S13G23    30.04R
AKRON-CANTON   PTSUNNY   64  46  52 S6        30.02F
WOOSTER        NOT AVBL
MANSFIELD      PTSUNNY   62  48  60 S7        30.03S
YOUNGSTOWN     LGT RAIN  63  47  55 SW5       30.03F
$$

OHZ042-051>053-060>062-070>072-077>081-282100-
  SOUTHWEST OHIO

CITY           SKY/WX    TMP DP  RH WIND       PRES   REMARKS
CINC-COVINGTON CLOUDY    71  55  56 SE10      29.94F
CINC-LUNKEN    FAIR      72  58  61 E6        29.94F
HAMILTON       FAIR      69  54  58 E6        29.96F
DAYTON         NOT AVBL
WRIGHT-PAT AFB PTSUNNY   67  50  54 CALM      29.98S
DAYTON GENERAL FAIR      66  51  58 VRB5      29.96F
WILMINGTON     FAIR      71  57  61 S8        29.96F
$$

OHZ036-037-039>041-045>050-054>059-063>069-073>076-082>088-282100-
  CENTRAL AND SOUTHEAST OHIO

CITY           SKY/WX    TMP DP  RH WIND       PRES   REMARKS
COLUMBUS       CLOUDY    70  48  45 CALM      29.99F
OSU AIRPORT    FAIR      67  47  48 CALM      29.99F
BOLTON FIELD   SUNNY     68  50  52 E3        30.00S
RICKENBACK AFB NOT AVBL
NEWARK         FAIR      71  45  39 E6        29.98F
MARION         CLOUDY    61  46  57 CALM      30.02S
LANCASTER      FAIR      74  52  46 S7        29.98F
ZANESVILLE     FAIR      71  47  42 NE5       30.00F
NEW PHILLY     FAIR      70  43  37 CALM      30.02F
$$




USA.gov is the U.S. government's official web portal to all federal, state and local government web resources and services.